Regional Weather Roundup
Issued by NWS Mt. Holly, NJ

Home | Current Version | Previous Version | Text Only | Print | Product List | Glossary On
Versions: 1 2 3 4 5 6 7 8 9 10 11 12 13 14 15 16 17 18 19 20 21 22 23 24 25 26 27 28
000
ASUS41 KPHI 011812
RWRPHI

REGIONAL WEATHER ROUNDUP
NATIONAL WEATHER SERVICE MOUNT HOLLY NJ
200 PM EDT SUN MAY 01 2016

NOTE:  "FAIR" INDICATES FEW OR NO CLOUDS BELOW 12,000 FEET WITH NO
SIGNIFICANT WEATHER AND/OR OBSTRUCTIONS TO VISIBILITY.

 * = STATION DOES NOT REPORT PRECIPITATION (E.G. RAIN, SNOW, ETC.)
        OR FOG.

NJZ015>026-011900-
SOUTHERN NEW JERSEY

CITY           SKY/WX    TMP DP  RH WIND       PRES   REMARKS
POMONA         RAIN      50  49  96 E9        30.12F FOG
6HR MIN TEMP:  49; 6HR MAX TEMP:  51; 6HR PCP:  0.48;

WILDWOOD*      CLOUDY   N/A N/A N/A E8        30.12S
MILLVILLE      LGT RAIN  50  49  96 E8        30.11F FOG
WRIGHTSTOWN    LGT RAIN  49  48  95 E7        30.10F
MOUNT HOLLY    LGT RAIN  50  48  93 VRB6      30.12S
TRENTON        LGT RAIN  50  46  86 SE9       30.11F
6HR MIN TEMP:  46; 6HR MAX TEMP:  50; 6HR PCP:  0.33;


$$
NJZ001>014-011900-
NORTHERN NEW JERSEY

CITY           SKY/WX    TMP DP  RH WIND       PRES   REMARKS
SUSSEX         LGT RAIN  46  42  86 CALM      30.13F
ANDOVER*         N/A     46  44  93 CALM      30.12F
MORRISTOWN     LGT RAIN  48  45  87 S8        30.15F
NEWARK         LGT RAIN  45  45 100 SE9       30.16F
TETERBORO      CLOUDY    48  41  76 SE10      30.15F
CALDWELL       LGT RAIN  48  44  86 SE7       30.15F FOG
SOMERVILLE     CLOUDY    49  46  90 SE5       30.13S FOG
ALLAIRE*       LGT RAIN  48  46  93 E12       30.16F
TOMS RIVER*    CLOUDY    48  45  87 E7        30.14F

$$
PAZ043-044-047-054-055-060>062-066>071-011900-
EASTERN PENNSYLVANIA

CITY           SKY/WX    TMP DP  RH WIND       PRES   REMARKS
PHILADELPHIA   LGT RAIN  52  47  83 CALM      30.14R
6HR MIN TEMP:  47; 6HR MAX TEMP:  52; 6HR PCP:  0.43;

NORTH PHILA    CLOUDY    51  48  89 SE9       30.14S
BLUE BELL*     CLOUDY    46  46 100 CALM      30.12S
DOYLESTOWN     LGT RAIN  47  46  97 SE5       30.12S
QUAKERTOWN*    CLOUDY    48  46  93 SE8       30.13R
PERKASIE*      CLOUDY    46  46 100 SE3       30.12S
POTTSTOWN      LGT RAIN  48  50 100 E5        30.12F
LANCASTER      CLOUDY    49  47  93 E8        30.09F
COATESVILLE    CLOUDY    48  48 100 SE7       30.11F FOG
READING        CLOUDY    48  44  86 S7        30.11S
6HR MIN TEMP:  43; 6HR MAX TEMP:  48; 6HR PCP:  0.05;

ALLENTOWN      CLOUDY    48  44  86 E5        30.12S FOG
6HR MIN TEMP:  44; 6HR MAX TEMP:  48; 6HR PCP:  0.16;

MOUNT POCONO   FOG       40  39  97 S13       30.07F VSB 1/2 WCI  32
6HR MIN TEMP:  36; 6HR MAX TEMP:  40; 6HR PCP:  0.11;

HAZLETON       DRIZZLE   43  41  93 SE10      30.10S
LEHIGHTON      CLOUDY    45  45 100 CALM      30.13S FOG
WILKES BARRE   RAIN      46  42  86 CALM      30.08S FOG

$$
DEZALL-MDZ008-012-015-019-020-011900-
DELAWARE AND EASTERN MARYLAND

CITY           SKY/WX    TMP DP  RH WIND       PRES   REMARKS
WILMINGTON     CLOUDY    51  48  89 SE12      30.12S
6HR MIN TEMP:  47; 6HR MAX TEMP:  51; 6HR PCP:  0.19;

DOVER          DRIZZLE   52  52 100 E12       30.08F
GEORGETOWN     LGT RAIN  53  52  96 E7        30.10F
6HR MIN TEMP:  50; 6HR MAX TEMP:  53; 6HR PCP:  0.27;

EASTON         LGT RAIN N/A N/A N/A CALM        N/A
PATUXENT       CLOUDY    56  53  90 SE9       30.07F
OCEAN CITY     RAIN      53  51  93 SE7       30.10F FOG
WALLOPS ISLAND LGT RAIN  55  53  93 E5        30.10S FOG
CAMBRIDGE      CLOUDY    54  52  94 SE5       30.09R
SALISBURY      LGT RAIN  54  53  97 SE7       30.09F

$$
PAZ001-021-NYZ056-072-MDZ011-DCZ001-011900-
OTHER NEARBY LOCATIONS

CITY           SKY/WX    TMP DP  RH WIND       PRES   REMARKS
HARRISBURG     CLOUDY    52  48  86 SE8       30.08F
STATE COLLEGE  DRIZZLE   50  50 100 E5        30.01S FOG
WILLIAMSPORT   CLOUDY    48  45  89 E10G21    30.06S
BINGHAMTON     CLOUDY    42  40  92 S15G21    30.02F
NEW YORK CITY  CLOUDY    48  43  82 VRB3      30.17F
BALTIMORE      CLOUDY    53  51  93 SE7       30.08F
WASHINGTON DC  CLOUDY    57  54  89 S6        30.07F

$$




USA.gov is the U.S. government's official web portal to all federal, state and local government web resources and services.